EW5799 Weather Reports


time (UTC)temp
C
wind
direction
speed
KPH
gust
KPH
rain 1hr
cm
rain 24hr
cm
rain mn
cm
humidity
%
barometer
mb
20260505111524 -17 0.0 0.0 0.00 0.00 0.00 1008.3
20260505101503 22 154 8.0 11.3 0.00 0.00 0.00 91 1008.1
20260505100059 22 196 8.0 14.5 0.00 0.00 0.00 91 1008.1
20260505094553 23 197 8.0 12.9 0.00 0.00 0.00 91 1008.3
20260505093056 23 195 8.0 16.1 0.00 0.00 0.00 91 1008.5
20260505091551 23 166 9.7 17.7 0.00 0.00 0.00 91 1008.5
20260505090039 23 188 9.7 17.7 0.00 0.00 0.00 90 1008.6
20260505084533 23 167 11.3 17.7 0.00 0.00 0.00 90 1008.4
20260505083025 23 166 8.0 16.1 0.00 0.00 0.00 90 1008.5
20260505081522 23 217 9.7 19.3 0.00 0.00 0.00 89 1008.6
20260505080017 23 156 11.3 16.1 0.00 0.00 0.00 89 1008.8
20260505074512 22 171 9.7 20.9 0.00 0.00 0.00 89 1008.8
20260505073005 22 203 8.0 19.3 0.00 0.00 0.00 89 1008.9
20260505071510 22 185 9.7 17.7 0.00 0.00 0.00 89 1009.0
20260505070001 22 178 11.3 17.7 0.00 0.00 0.00 89 1009.2
20260505064558 22 167 9.7 16.1 0.00 0.00 0.00 89 1009.5
20260505063027 22 173 6.4 12.9 0.00 0.00 0.00 89 1009.8
20260505061525 22 160 6.4 14.5 0.00 0.00 0.00 89 1009.9
20260505060037 22 198 8.0 16.1 0.00 0.00 0.00 88 1009.9
20260505054522 22 165 8.0 17.7 0.00 0.00 0.00 88 1010.0
20260505053024 22 155 8.0 14.5 0.00 0.00 0.00 87 1009.9
20260505051525 22 160 11.3 19.3 0.00 0.00 0.00 87 1010.1
20260505041540 22 175 4.8 9.7 0.00 0.00 0.00 87 1010.5
20260505040041 22 170 4.8 11.3 0.00 0.00 0.00 87 1010.6
20260505034540 22 163 4.8 12.9 0.00 0.00 0.00 86 1010.8
20260505033036 22 144 6.4 12.9 0.00 0.00 0.00 86 1010.7
20260505031532 22 161 8.0 12.9 0.00 0.00 0.00 85 1010.7
20260505030032 22 165 8.0 11.3 0.00 0.00 0.00 85 1010.7
20260505024528 22 160 8.0 12.9 0.00 0.00 0.00 85 1010.7
20260505023026 22 157 8.0 14.5 0.00 0.00 0.00 84 1010.7
20260505021528 22 158 8.0 12.9 0.00 0.00 0.00 84 1010.6
20260505020021 22 160 6.4 14.5 0.00 0.00 0.00 84 1010.6
20260505014516 22 158 9.7 16.1 0.00 0.00 0.00 83 1010.4
20260505013013 22 146 9.7 14.5 0.00 0.00 0.00 82 1010.4
20260505011513 23 163 8.0 14.5 0.00 0.00 0.00 83 1010.4
20260505010011 23 163 9.7 22.5 0.00 0.00 0.00 82 1010.2
20260505004519 23 159 16.1 24.1 0.00 0.00 0.00 81 1010.1
20260505003010 23 154 16.1 25.7 0.00 0.00 0.00 80 1010.2
20260505001540 23 150 16.1 25.7 0.00 0.00 0.00 80 1010.1
20260505000051 23 164 17.7 25.7 0.00 0.00 0.00 79 1010.3
20260504234535 23 146 14.5 24.1 0.00 0.00 0.00 80 1010.3
20260504233036 23 160 16.1 25.7 0.00 0.00 0.00 79 1010.5
20260504231531 23 153 17.7 22.5 0.00 0.00 0.00 79 1010.7
20260504230030 23 149 12.9 22.5 0.00 0.00 0.00 79 1010.9
20260504224527 23 148 16.1 25.7 0.00 0.00 0.00 79 1010.8
20260504223024 23 165 16.1 24.1 0.00 0.00 0.00 78 1011.2
20260504221523 23 145 14.5 27.4 0.00 0.00 0.00 78 1011.3
20260504220037 24 162 16.1 27.4 0.00 0.00 0.00 77 1011.4
20260504214525 24 122 16.1 24.1 0.00 0.00 0.00 78 1011.5
20260504213018 24 137 14.5 24.1 0.00 0.00 0.00 75 1011.6
20260504211525 24 165 14.5 24.1 0.00 0.00 0.00 77 1011.7
20260504210016 24 229 11.3 24.1 0.00 0.00 0.00 76 1011.9
20260504204544 24 174 14.5 22.5 0.00 0.00 0.00 77 1012.1
20260504203043 24 120 12.9 25.7 0.00 0.00 0.00 75 1012.2
20260504201550 24 161 14.5 24.1 0.00 0.00 0.00 75 1012.5
20260504200038 25 134 11.3 25.7 0.00 0.00 0.00 73 1012.6
20260504194537 25 165 14.5 20.9 0.00 0.00 0.00 73 1012.6
20260504193033 25 179 11.3 24.1 0.00 0.00 0.00 73 1013.1
20260504191503 25 213 14.5 25.7 0.00 0.00 0.00 72 1013.2
20260504190002 25 176 14.5 25.7 0.00 0.00 0.00 72 1013.3
20260504184534 25 171 12.9 25.7 0.00 0.00 0.00 69 1013.2
20260504183028 25 186 8.0 22.5 0.00 0.00 0.00 71 1013.3
20260504181531 24 171 14.5 22.5 0.00 0.00 0.00 73 1013.9
20260504180023 24 143 14.5 25.7 0.00 0.00 0.00 71 1014.0
20260504174520 24 163 12.9 27.4 0.00 0.00 0.00 73 1014.0
20260504173019 24 154 12.9 25.7 0.00 0.00 0.00 72 1014.4
20260504171547 24 169 12.9 24.1 0.00 0.00 0.00 71 1014.4